CZ-6A DEB, 61171

Orbit data source: Space-Track

CZ-6A DEB, 61171 is space debris in LEO originally from a launch on Tue, 06 Aug 2024 UTC launched from the Taiyaun Space Center, China (TSC). Debris objects in space refer to the collection of defunct objects orbiting the Earth. Examples of debris include non-operational satellites, rocket bodies, and fragments generated from explosions, collisions, or faulty payload assembly.

Loading next visibility...
Identifier
61171, 2024-140RR
Orbit
LEO
Country
Flag of CNCN / PRC
Related business
Manufacturer
SAST
Mission
Spacecraft
Bus & Motor
Unknown
Mass
Unknown
Launch date (UTC)
2024-08-06 (2 years ago)
Launch vehicle
Unknown
Launch site
Taiyaun Space Center, China (TSC)
Object type
Payload
Rocket body
Debris
Shape & HBR
Unknown shape, 0.1 m
Radar Cross Section
Medium (>0.1 m² and <1 m²)

Expand to show TLE details & history
Last TLE update: 16 hours ago

TLE from 16 hours ago
0 CZ-6A DEB
1 61171U 24140RR  26171.25043005  .00003793  00000-0  89033-3 0  9991
2 61171  88.9941 270.3035 0067516 300.4950  58.9603 14.52927817 96601
Epoch: 2026-06-20T06:00Z
TLE epoch observation values (Epoch: 2026-06-20T06:00:37.156Z)
Latitude
0.00001°
Longitude
-88.31906°
Altitude
694.738 km
Speed
7.522 km/s
True Right ascension
18h 01m 12s
True Declination
0° 00' 00"
Sunlit
Object was in full shadow at epoch
Visualization orbit readout
Latitude
Unknown
Longitude
Unknown
Altitude
Unknown
Speed
Unknown
Apparent Right ascension
Unknown
Apparent Declination
Unknown
Sunlit
N/A
Visualization observer readout
Local Sidereal Time
08:42:22
Azimuth
Unknown
Elevation
Unknown
Doppler factor
Unknown
Orbital elements
Apogee altitude
760.883 km
Perigee altitude
665.129 km
Semi-major axis
7,091.143 km
Eccentricity
0.00675
Inclination
88.9941°
RAAN
270.3035°
Arg. of periapsis
300.495°
True anomaly
59.62608°
Mean anomaly
58.9603°
Eccentric anomaly
59.2929°
Mean motion
3.6347 °/min
Orbital period
99.05 mins
BSTAR
0.00089033
Loading maneuver chart data...
Computing Atmospheric mass density...
Loading historical data...
Loading historical data...
Loading historical data...
Loading historical data...
Loading historical data...
Loading historical data...
Loading historical data...

Documentation

Showing up to 5 results
|